Wind_Speed
12 12 21 15 13 18 5 9 11 2 10 2 5 15 8 6 9 4 8 12 13 12 6 12 8 20 5 6 5 7 7 5 10 13 10 11 13 14 13 15 14 14 7 9
15 20 20 16 17 8 5 10 11 14 8 6 4 13 12 6 6 6 5 10 3 7 5 8 14 15 9 13 10 5 12 7 8 13 13 14 15 16 17 18 16 15 11 12
19 23 8 12 16 6 8 12 15 12 7 9 11 12 8 2 0 4 4 3 10 11 5 2 15 17 14 16 12 11 10 9 8 11 13 16 16 19 21 18 17 13 13 15
23 16 24 16 8 6 13 13 13 5 4 6 9 5 3 13 10 5 7 3 6 8 4 3 7 13 12 14 11 14 15 12 11 11 13 15 17 17 16 22 21 21 20 16
22 19 19 17 8 10 16 11 6 10 11 12 8 7 21 19 25 9 4 7 7 8 6 4 4 10 9 11 14 16 15 12 9 11 12 16 18 20 24 27 26 28 29 20
22 14 12 10 9 14 14 15 16 15 16 18 17 12 11 13 5 14 8 6 8 7 7 2 4 2 8 12 12 14 13 11 10 13 17 18 18 19 23 27 31 33 28 26
16 15 11 14 11 13 15 11 14 10 5 5 10 7 5 7 9 11 9 6 7 10 4 4 6 6 5 2 3 5 7 10 12 15 17 19 23 26 37 41 42 37 35 31
16 16 17 15 18 18 17 17 19 4 5 5 19 3 1 8 7 16 14 7 9 9 5 4 6 10 10 7 5 4 4 7 9 12 16 20 23 31 38 34 26 29 32 37
18 25 15 16 16 12 17 16 18 19 19 7 8 12 20 12 9 16 11 12 9 7 4 4 6 5 9 8 8 7 6 7 8 11 14 17 21 32 35 13 5 10 25 28
22 22 20 21 15 14 16 14 15 18 3 3 11 22 21 19 17 17 16 15 13 12 6 1 4 4 7 8 7 6 8 8 10 13 15 18 22 30 34 16 7 3 11 17
16 17 14 5 14 12 17 19 15 2 9 4 1 5 15 22 23 19 20 13 9 12 10 5 3 1 4 7 6 6 8 10 9 12 15 19 22 22 28 26 23 20 4 8
21 16 7 8 13 14 18 13 8 3 6 8 2 8 5 12 20 19 14 15 14 14 13 10 5 5 4 5 7 5 9 12 14 13 15 17 18 18 16 16 13 13 16 7
17 18 11 7 12 11 8 5 14 10 4 12 4 13 4 23 26 19 20 21 20 16 15 17 6 5 5 6 5 6 8 11 14 15 14 14 15 15 13 12 8 7 3 3
16 18 18 8 17 14 15 12 11 19 10 12 14 16 25 25 23 20 25 23 22 21 19 10 11 4 5 6 5 5 9 11 12 15 17 18 15 14 13 12 10 11 9 7
14 13 5 4 5 5 18 13 8 22 11 6 6 15 27 29 24 22 23 21 20 20 19 16 12 7 6 6 6 10 12 13 15 17 19 20 20 17 16 15 14 14 13 13
14 12 4 3 5 1 9 10 13 15 30 8 17 24 16 14 17 23 20 23 21 18 17 12 15 13 7 7 9 11 12 18 19 19 22 19 19 20 19 20 19 18 18 18
17 16 16 5 12 10 4 5 11 16 17 11 8 12 17 19 16 19 21 23 24 21 14 14 10 8 7 10 12 15 17 23 15 22 19 20 16 17 15 17 22 25 25 25
12 7 9 8 9 3 8 8 8 16 16 11 14 11 10 8 9 15 15 14 17 18 15 16 13 10 14 16 21 27 27 33 33 33 32 33 29 20 17 18 16 15 17 21
2 5 5 5 8 5 12 19 14 12 7 12 10 11 11 9 8 15 12 15 18 21 10 11 12 8 12 16 19 21 25 31 32 34 37 37 33 29 22 20 21 19 17 16
13 5 11 7 4 5 6 8 18 12 5 10 8 10 9 9 9 13 18 21 22 39 5 11 5 6 8 12 18 21 25 30 32 33 37 35 32 28 26 25 21 20 20 20
7 8 18 5 4 9 11 3 16 13 13 3 5 2 5 9 11 13 12 16 9 10 11 14 15 18 20 23 24 24 27 31 33 36 34 30 25 23 25 25 24 23 22 22
7 9 6 1 5 6 10 2 8 8 12 7 8 6 6 8 14 13 16 16 11 13 8 20 22 23 24 26 26 31 34 34 34 33 31 26 23 22 23 23 22 22 24 24
10 10 11 6 6 13 7 13 13 13 9 8 7 5 8 9 10 13 12 15 23 22 15 25 25 26 28 31 34 34 32 35 36 34 25 23 22 23 23 23 22 22 23 25
7 9 8 6 7 6 7 8 12 13 5 4 4 13 11 14 16 12 12 14 14 10 16 22 24 25 32 34 35 34 33 32 31 32 30 30 29 24 23 24 25 25 26 27
10 20 13 8 5 10 9 6 8 8 10 13 15 14 14 7 6 8 9 10 15 20 25 29 34 37 33 32 31 26 30 32 33 33 33 31 32 32 30 29 30 29 28 29
6 12 8 15 14 13 12 10 8 10 5 10 10 12 15 15 14 17 19 23 26 27 30 32 32 33 33 33 32 33 34 35 36 36 35 36 37 38 36 38 37 33 32 31
Wind_Direction
222 233 236 236 236 256 250 220 290 181 179 352 52 135 123 138 150 120 351 342 332 342 316 275 223 318 33 13 208 26 323 306 304 307 315 296 298 301 301 302 288 273 265 246
218 230 236 247 261 197 244 269 264 269 167 84 198 125 170 174 137 135 66 348 328 336 298 285 304 311 322 315 339 330 352 338 338 307 307 294 292 287 283 292 302 289 267 262
222 224 226 258 265 226 231 229 247 267 209 179 199 132 136 232 76 157 178 187 268 310 254 271 294 302 312 297 309 327 337 352 337 313 308 300 300 301 288 282 293 293 283 263
228 237 242 247 255 245 240 238 264 325 302 251 262 113 291 285 272 233 313 87 263 317 323 265 242 288 299 323 316 322 319 322 331 315 301 303 301 315 295 281 277 278 276 264
234 248 262 213 234 245 260 276 305 302 284 273 174 178 226 248 280 180 184 183 265 274 259 316 281 246 271 293 301 299 312 326 329 323 311 301 295 289 288 285 271 262 258 250
252 248 257 239 230 238 259 282 283 267 259 262 226 218 228 247 326 172 149 184 267 297 273 355 359 58 246 273 281 282 292 312 321 313 311 307 297 293 290 290 278 265 251 241
245 257 252 241 246 241 233 265 264 280 266 230 178 74 21 193 178 185 181 193 237 272 303 41 47 78 90 50 339 334 334 322 310 310 307 303 306 305 295 285 282 256 251 233
224 235 226 215 229 238 253 247 243 262 182 62 151 154 100 137 198 200 177 216 222 256 286 83 73 95 77 68 39 9 320 302 305 304 307 312 314 326 319 309 265 252 234 247
237 227 259 219 220 224 253 263 261 288 306 106 117 130 199 193 153 157 187 194 202 249 296 108 105 79 53 54 47 44 24 358 335 330 330 335 336 349 356 357 347 266 230 233
258 285 321 196 210 226 239 266 308 295 85 78 150 164 185 183 192 179 185 201 211 227 264 298 71 27 17 17 21 22 21 13 358 353 350 351 355 9 10 3 18 310 227 232
259 266 271 204 200 227 243 250 247 126 82 128 155 221 227 217 172 186 195 218 208 202 222 309 195 248 336 343 349 356 359 4 7 354 358 358 5 11 30 25 45 39 217 174
234 245 302 273 240 292 259 265 266 299 155 93 5 292 273 187 179 173 195 195 184 200 219 270 283 244 281 316 316 337 351 350 357 0 357 354 357 7 10 22 32 59 64 65
234 245 259 224 257 259 350 338 16 256 283 1 156 215 183 170 160 171 189 191 191 206 217 252 347 207 296 298 299 333 345 344 341 346 344 345 345 348 355 359 351 358 14 214
232 233 264 234 201 194 283 327 341 347 34 146 214 161 151 166 171 173 207 216 213 235 237 245 297 264 288 279 297 324 331 332 333 329 326 326 325 323 323 329 329 327 332 316
224 225 248 160 179 271 292 251 307 320 312 318 325 164 171 171 184 194 209 226 208 196 209 242 240 278 251 264 302 326 326 326 327 321 317 313 309 304 299 299 299 300 303 302
219 206 193 194 230 179 276 277 294 307 341 283 125 137 167 181 188 199 207 197 198 209 226 248 235 284 251 288 309 328 330 322 323 329 327 321 306 295 288 283 280 277 279 279
208 215 249 126 171 197 228 329 340 293 304 42 356 172 173 172 185 195 196 212 226 225 241 258 296 264 291 325 329 325 326 334 330 339 346 351 345 326 311 290 278 274 271 271
179 245 209 134 140 158 198 224 23 330 311 55 313 192 193 204 186 206 217 227 239 242 255 267 292 314 342 339 342 341 333 334 339 339 342 345 342 340 326 318 310 302 293 280
124 129 349 154 173 230 221 248 274 297 246 278 302 199 175 163 151 178 209 236 225 223 273 266 297 302 321 330 326 304 309 327 325 328 330 331 329 325 325 320 314 306 299 294
223 299 245 242 169 199 307 251 289 228 263 340 210 201 202 194 199 228 220 245 251 324 225 287 259 280 268 264 269 288 301 306 314 314 316 316 315 311 312 312 308 304 299 296
255 202 204 201 212 84 87 127 177 185 248 145 160 160 242 245 250 241 244 258 279 172 205 221 246 256 261 264 275 285 291 297 298 294 299 306 301 299 300 301 301 300 298 296
299 303 249 115 58 1 255 257 215 159 184 192 206 217 245 249 240 242 256 251 241 286 225 259 258 259 269 278 286 290 291 294 302 305 313 307 301 299 296 293 292 295 297 296
309 312 305 315 30 346 194 221 171 180 166 215 226 223 233 228 249 257 247 251 263 300 234 242 248 264 288 303 305 305 300 296 303 307 308 306 301 297 294 294 291 290 290 291
321 295 184 213 152 189 194 216 227 236 187 200 216 237 238 250 253 263 274 283 291 270 236 253 270 285 293 297 304 301 303 306 305 305 309 307 304 301 298 296 297 296 292 288
175 162 171 207 242 252 252 274 263 260 230 247 231 235 226 226 195 213 238 248 251 255 263 276 289 301 306 310 311 302 303 306 308 307 305 302 301 300 298 295 295 295 293 292
190 237 216 216 206 230 204 195 217 226 217 198 244 236 224 229 238 244 253 261 269 280 300 313 314 313 310 309 308 308 309 308 306 303 300 300 299 298 294 293 291 289 288 286
Height
3190 3191 3186 3185 3187 3189 3191 3191 3192 3192 3191 3192 3192 3191 3196 3195 3195 3197 3193 3187 3191 3189 3185 3186 3190 3186 3181 3195 3194 3194 3192 3191 3192 3195 3197 3199 3200 3200 3201 3201 3201 3200 3201 3201
3189 3187 3182 3184 3185 3190 3190 3190 3189 3189 3189 3192 3191 3192 3193 3195 3196 3195 3196 3194 3192 3190 3190 3187 3184 3189 3184 3188 3187 3192 3190 3189 3190 3192 3194 3196 3196 3196 3196 3197 3197 3196 3198 3197
3184 3181 3181 3183 3184 3186 3187 3188 3186 3189 3187 3189 3189 3192 3193 3193 3194 3194 3194 3194 3195 3194 3191 3190 3187 3186 3187 3191 3189 3188 3188 3188 3190 3191 3191 3191 3192 3193 3192 3192 3192 3191 3191 3191
3180 3179 3182 3183 3183 3184 3185 3186 3186 3186 3186 3186 3187 3190 3193 3188 3191 3195 3192 3193 3194 3192 3191 3192 3189 3184 3183 3183 3184 3182 3183 3186 3189 3189 3189 3189 3188 3185 3185 3187 3186 3186 3185 3186
3175 3177 3179 3180 3181 3183 3182 3183 3183 3183 3184 3184 3184 3186 3184 3185 3186 3193 3194 3194 3195 3191 3191 3191 3188 3186 3184 3181 3181 3182 3184 3186 3187 3188 3187 3186 3185 3185 3183 3182 3181 3177 3178 3181
3174 3176 3177 3177 3178 3180 3181 3180 3180 3181 3182 3181 3181 3182 3183 3185 3187 3191 3193 3195 3193 3191 3191 3190 3188 3187 3185 3184 3185 3185 3186 3186 3186 3186 3184 3182 3182 3180 3177 3174 3171 3168 3165 3173
3171 3172 3174 3175 3177 3178 3179 3179 3178 3180 3179 3180 3182 3184 3190 3187 3190 3193 3194 3193 3192 3190 3189 3189 3188 3187 3186 3185 3185 3186 3185 3185 3184 3183 3182 3179 3178 3175 3169 3161 3158 3160 3162 3158
3171 3173 3170 3171 3173 3174 3175 3176 3176 3178 3178 3179 3188 3193 3191 3187 3189 3191 3192 3193 3192 3190 3189 3188 3187 3187 3187 3187 3186 3187 3186 3185 3185 3182 3180 3177 3174 3168 3153 3139 3138 3144 3152 3153
3168 3166 3164 3166 3168 3171 3172 3172 3172 3171 3170 3173 3184 3187 3197 3192 3190 3190 3192 3192 3190 3190 3188 3188 3188 3188 3187 3187 3186 3185 3185 3184 3182 3180 3178 3174 3169 3161 3144 3135 3134 3137 3142 3148
3164 3165 3161 3161 3167 3169 3169 3171 3171 3171 3172 3180 3187 3183 3177 3180 3185 3190 3191 3190 3190 3189 3189 3189 3189 3189 3188 3187 3185 3184 3183 3182 3180 3177 3174 3170 3165 3157 3144 3139 3137 3139 3141 3147
3162 3165 3164 3163 3165 3166 3168 3168 3168 3169 3173 3178 3183 3179 3179 3180 3181 3185 3188 3186 3188 3190 3189 3189 3187 3186 3186 3186 3185 3182 3181 3180 3178 3175 3172 3167 3163 3159 3154 3150 3145 3144 3145 3150
3159 3160 3161 3162 3160 3164 3162 3165 3166 3164 3171 3169 3179 3175 3173 3173 3178 3185 3186 3185 3187 3187 3185 3186 3185 3184 3183 3184 3184 3182 3179 3177 3176 3174 3170 3166 3163 3161 3158 3156 3155 3153 3153 3154
3157 3157 3160 3158 3164 3164 3160 3159 3164 3170 3165 3168 3177 3171 3163 3173 3175 3179 3184 3183 3184 3183 3183 3181 3184 3178 3181 3181 3181 3180 3178 3176 3174 3172 3170 3169 3165 3161 3159 3157 3156 3157 3159 3158
3154 3155 3157 3157 3158 3161 3160 3160 3161 3161 3162 3162 3164 3162 3166 3170 3172 3174 3178 3181 3182 3180 3179 3180 3180 3179 3180 3180 3180 3176 3176 3175 3173 3171 3168 3166 3164 3161 3158 3157 3155 3154 3154 3154
3152 3154 3154 3155 3157 3158 3159 3160 3161 3162 3163 3162 3159 3159 3162 3167 3171 3173 3174 3175 3175 3175 3174 3174 3175 3177 3178 3178 3177 3175 3173 3172 3171 3169 3167 3164 3161 3158 3156 3154 3153 3151 3150 3150
3149 3152 3153 3154 3156 3157 3158 3160 3161 3158 3160 3160 3158 3161 3165 3167 3169 3170 3171 3171 3172 3172 3171 3171 3174 3176 3176 3175 3173 3172 3171 3169 3167 3165 3163 3160 3157 3155 3154 3151 3150 3149 3147 3146
3146 3149 3151 3153 3155 3157 3158 3159 3158 3162 3165 3157 3161 3160 3162 3165 3166 3167 3168 3169 3170 3171 3171 3171 3170 3171 3170 3169 3170 3169 3166 3164 3163 3161 3159 3157 3153 3150 3148 3147 3145 3143 3142 3141
3144 3146 3147 3151 3154 3157 3157 3156 3156 3161 3162 3153 3162 3158 3159 3161 3163 3164 3165 3166 3169 3168 3167 3168 3168 3165 3163 3162 3160 3159 3158 3158 3154 3151 3150 3150 3148 3146 3144 3141 3140 3138 3136 3134
3141 3145 3150 3149 3151 3153 3152 3152 3155 3163 3163 3165 3163 3159 3158 3159 3160 3163 3163 3162 3163 3157 3155 3164 3164 3160 3157 3158 3156 3156 3156 3153 3150 3148 3146 3145 3143 3141 3140 3137 3134 3132 3131 3129
3139 3143 3146 3153 3149 3150 3151 3153 3155 3158 3160 3161 3157 3157 3157 3157 3158 3158 3159 3159 3159 3144 3165 3169 3164 3163 3159 3159 3155 3154 3153 3150 3148 3146 3144 3141 3139 3137 3134 3132 3130 3127 3125 3123
3147 3150 3151 3148 3148 3150 3152 3152 3152 3159 3164 3159 3157 3157 3156 3156 3156 3157 3157 3158 3156 3156 3165 3163 3163 3161 3157 3155 3151 3150 3149 3148 3147 3144 3139 3136 3134 3132 3130 3127 3125 3122 3120 3118
3149 3149 3143 3141 3145 3155 3153 3154 3154 3155 3155 3156 3156 3155 3154 3153 3152 3151 3154 3153 3154 3151 3156 3159 3155 3157 3153 3151 3147 3145 3144 3141 3136 3133 3130 3127 3126 3125 3124 3121 3119 3116 3113 3111
3144 3148 3145 3147 3145 3148 3151 3154 3153 3152 3152 3154 3154 3151 3149 3149 3148 3149 3149 3150 3150 3148 3148 3149 3150 3149 3147 3145 3140 3136 3134 3131 3128 3125 3122 3120 3119 3118 3115 3114 3112 3110 3107 3104
3146 3143 3144 3147 3146 3154 3151 3151 3150 3150 3149 3151 3152 3148 3147 3145 3143 3143 3144 3144 3143 3144 3144 3145 3146 3144 3142 3136 3132 3130 3127 3123 3119 3116 3114 3111 3109 3109 3108 3106 3103 3102 3100 3097
3140 3142 3141 3145 3145 3149 3147 3146 3145 3145 3148 3145 3147 3147 3145 3144 3142 3141 3140 3140 3140 3140 3139 3139 3139 3136 3132 3128 3125 3122 3120 3117 3113 3110 3106 3104 3101 3099 3098 3096 3095 3093 3091 3088
3136 3139 3137 3139 3141 3142 3141 3142 3143 3143 3144 3145 3144 3144 3144 3142 3140 3138 3137 3136 3135 3136 3137 3135 3131 3128 3124 3122 3119 3116 3113 3109 3105 3101 3098 3095 3092 3090 3087 3084 3083 3083 3081 3079